WXM80 ListenWXM80 Stop

You find our weather info also at:

UK Metoffice

WeatherCloud

Weather Underground

Northeastern Weather Network

AWEKAS

Citizen Weather Observer Program (CWOP)

HAMweather, WeatherForYou, PWS Weather


Weather Underground History page Text

Daily Summary for March 21, 2017 Units:  Metric    English   Both
« Previous Day
Next Day »
Daily Weekly Monthly Yearly Custom
  High: Low: Average:
Temperature: 14.2 °C 4.6 °C 8.7 °C
Dew Point: 2.4 °C -3.2 °C -0.6 °C
Humidity: 65 % 39 % 53 %
Wind Speed: 10.6 km/h 0 km/h 2.9 km/h
Wind Gust: 19.3 km/h - -
Wind:- - WSW
Pressure: 1013.8 hPa 1008 hPa -
Precipitation: 0 mm    
Historical Graphs
 
 
Tabular Data for March 21, 2017
Time Temperature Dew Point Pressure Wind Wind Speed Wind Gust Humidity Rainfall Rate (Hourly)
00:03 5.9 °C -2.9 °C 1013.8 hPa WSW 1 km/h 3.7 km/h 53 % 0 mm
00:08 6 °C -2.9 °C 1013.8 hPa West 3.4 km/h 5.6 km/h 53 % 0 mm
00:13 6.1 °C -3.1 °C 1013.4 hPa WNW 3.2 km/h 5.6 km/h 52 % 0 mm
00:18 6.2 °C -3.2 °C 1013.4 hPa WSW 4.3 km/h 8 km/h 51 % 0 mm
00:24 6.3 °C -2.9 °C 1013.4 hPa WSW 2.6 km/h 5.6 km/h 52 % 0 mm
00:29 6.3 °C -3.1 °C 1013.4 hPa Calm   3.7 km/h 51 % 0 mm
00:34 6.3 °C -2.8 °C 1013.4 hPa WNW 0.8 km/h 1.9 km/h 52 % 0 mm
00:39 6.4 °C -2.5 °C 1013.4 hPa WNW 0.6 km/h 1.9 km/h 53 % 0 mm
00:44 6.4 °C -2.4 °C 1013.8 hPa Calm   3.7 km/h 53 % 0 mm
00:49 6.4 °C -2.4 °C 1013.8 hPa WNW 0.8 km/h 3.7 km/h 53 % 0 mm
00:54 6.4 °C -2.4 °C 1013.4 hPa WNW 0.6 km/h 3.7 km/h 53 % 0 mm
00:59 6.4 °C -2.4 °C 1013.4 hPa WSW 3.5 km/h 5.6 km/h 53 % 0 mm
01:04 6.4 °C -2.4 °C 1013.4 hPa WSW 0.3 km/h 3.7 km/h 53 % 0 mm
01:05 6.4 °C -2.4 °C 1013.4 hPa WSW 3.4 km/h 5.6 km/h 53 % 0 mm
01:10 6.4 °C -2.4 °C 1013.4 hPa WSW 0.5 km/h 1.9 km/h 53 % 0 mm
01:15 6.4 °C -2.3 °C 1013.4 hPa Calm     54 % 0 mm
01:20 6.4 °C -2.3 °C 1013.4 hPa WSW 0.8 km/h 3.2 km/h 54 % 0 mm
01:25 6.3 °C -2.1 °C 1013.4 hPa WSW 2.9 km/h 5.6 km/h 55 % 0 mm
01:30 6.3 °C -2.1 °C 1013.4 hPa SW 2.4 km/h 6.4 km/h 55 % 0 mm
01:35 6.3 °C -2.3 °C 1013.4 hPa WSW 3.5 km/h 5.6 km/h 54 % 0 mm
01:40 6.3 °C -2.3 °C 1013.1 hPa WSW 3.5 km/h 5.6 km/h 54 % 0 mm
01:45 6.3 °C -2.3 °C 1013.1 hPa WSW 2.9 km/h 8 km/h 54 % 0 mm
01:50 6.3 °C -2.1 °C 1013.1 hPa WSW 5.1 km/h 7.4 km/h 55 % 0 mm
01:51 6.3 °C -2.1 °C 1013.1 hPa WSW 3.7 km/h 9.3 km/h 55 % 0 mm
01:56 6.3 °C -2.1 °C 1013.1 hPa WSW 4.2 km/h 7.4 km/h 55 % 0 mm
02:01 6.3 °C -2.1 °C 1013.1 hPa WSW 1.9 km/h 3.7 km/h 55 % 0 mm
02:06 6.3 °C -2.1 °C 1013.1 hPa WSW 3.4 km/h 5.6 km/h 55 % 0 mm
02:11 6.3 °C -2.1 °C 1013.1 hPa WSW 3.5 km/h 5.6 km/h 55 % 0 mm
02:16 6.3 °C -2.3 °C 1013.1 hPa WSW 2.3 km/h 5.6 km/h 54 % 0 mm
02:21 6.3 °C -2.3 °C 1013.1 hPa WSW 2.9 km/h 6.4 km/h 54 % 0 mm
02:26 6.3 °C -2.3 °C 1012.8 hPa WSW 1.8 km/h 5.6 km/h 54 % 0 mm
02:31 6.3 °C -2.3 °C 1012.8 hPa West 3.4 km/h 5.6 km/h 54 % 0 mm
02:36 6.3 °C -2.3 °C 1012.8 hPa West 1.6 km/h 5.6 km/h 54 % 0 mm
02:46 6.3 °C -2.1 °C 1012.8 hPa West 0.5 km/h 1.9 km/h 55 % 0 mm
02:51 6.2 °C -2.2 °C 1012.4 hPa Calm   1.9 km/h 55 % 0 mm
02:56 6.2 °C -2.2 °C 1012.4 hPa West 0.2 km/h 1.9 km/h 55 % 0 mm
03:02 6.2 °C -1.9 °C 1012.4 hPa West 0.2 km/h   56 % 0 mm
03:07 6.1 °C -2 °C 1012.4 hPa Calm   1.9 km/h 56 % 0 mm
03:12 6.1 °C -2 °C 1012.1 hPa West 0.5 km/h 1.9 km/h 56 % 0 mm
03:17 6.1 °C -1.8 °C 1012.4 hPa Calm   1.9 km/h 57 % 0 mm
03:22 6 °C -2.1 °C 1012.4 hPa West 0.2 km/h 1.9 km/h 56 % 0 mm
03:27 5.9 °C -1.9 °C 1012.1 hPa Calm     57 % 0 mm
03:32 5.8 °C -2.1 °C 1012.1 hPa Calm     57 % 0 mm
03:37 5.7 °C -1.9 °C 1012.1 hPa West 0.2 km/h 1.9 km/h 58 % 0 mm
03:42 5.7 °C -1.9 °C 1011.7 hPa West 0.3 km/h 3.7 km/h 58 % 0 mm
03:47 5.6 °C -2 °C 1012.1 hPa West 3.5 km/h 5.6 km/h 58 % 0 mm
03:52 5.5 °C -2.1 °C 1012.1 hPa WSW 2.9 km/h 5.6 km/h 58 % 0 mm
03:57 5.4 °C -2.2 °C 1011.7 hPa SW 3.9 km/h 7.4 km/h 58 % 0 mm
04:02 5.3 °C -2.6 °C 1011.7 hPa SW 2.7 km/h 3.7 km/h 57 % 0 mm
04:08 5.2 °C -2.6 °C 1011.7 hPa SW 1.8 km/h 5.6 km/h 57 % 0 mm
04:12 5.1 °C -2.5 °C 1011.7 hPa SW 0.8 km/h 3.7 km/h 58 % 0 mm
04:18 5.1 °C -2.6 °C 1011.7 hPa WSW 2.3 km/h 4.8 km/h 58 % 0 mm
04:23 4.9 °C -2.7 °C 1011.7 hPa WSW 1.6 km/h 6.4 km/h 58 % 0 mm
04:28 4.8 °C -2.5 °C 1011.7 hPa WSW 3.2 km/h 4.8 km/h 59 % 0 mm
04:33 4.7 °C -2.6 °C 1011.7 hPa WSW 3.2 km/h 6.4 km/h 59 % 0 mm
04:38 4.7 °C -2.7 °C 1012.1 hPa WSW 1.6 km/h 9.7 km/h 59 % 0 mm
04:43 4.6 °C -2.5 °C 1012.1 hPa SW 3.1 km/h 7.4 km/h 60 % 0 mm
04:48 4.6 °C -2.6 °C 1012.1 hPa SW 5.1 km/h 5.6 km/h 60 % 0 mm
04:53 4.6 °C -2.6 °C 1012.1 hPa WSW 3.2 km/h 8 km/h 60 % 0 mm
04:58 4.6 °C -2.6 °C 1012.4 hPa SW 4.2 km/h 5.6 km/h 60 % 0 mm
05:03 4.6 °C -2.3 °C 1012.4 hPa WSW 3.5 km/h 5.6 km/h 61 % 0 mm
05:08 4.6 °C -2.3 °C 1012.4 hPa WSW 3.1 km/h 7.4 km/h 61 % 0 mm
05:13 4.6 °C -2.3 °C 1012.4 hPa WSW 1.4 km/h 5.6 km/h 61 % 0 mm
05:18 4.6 °C -2.3 °C 1012.1 hPa SSW 1.6 km/h 7.4 km/h 61 % 0 mm
05:23 4.7 °C -2.2 °C 1012.1 hPa WSW 3.7 km/h 7.4 km/h 61 % 0 mm
05:28 4.7 °C -2.2 °C 1012.1 hPa WSW 2.4 km/h 5.6 km/h 61 % 0 mm
05:33 4.7 °C -2.2 °C 1012.1 hPa SW 4.7 km/h 8 km/h 61 % 0 mm
05:38 4.7 °C -2.4 °C 1012.1 hPa WSW 3.9 km/h 5.6 km/h 60 % 0 mm
05:43 4.7 °C -2.4 °C 1012.4 hPa South 1.3 km/h 5.6 km/h 60 % 0 mm
05:48 4.8 °C -2.3 °C 1012.1 hPa West 1.3 km/h 3.7 km/h 60 % 0 mm
05:53 4.8 °C -2.3 °C 1012.1 hPa West 0.2 km/h   60 % 0 mm
05:58 4.8 °C -2.3 °C 1012.1 hPa West 1.4 km/h 1.9 km/h 60 % 0 mm
06:03 4.8 °C -2.1 °C 1012.1 hPa WSW 0.2 km/h 3.7 km/h 61 % 0 mm
06:08 4.9 °C -2 °C 1011.7 hPa WSW 0.5 km/h 1.9 km/h 61 % 0 mm
06:14 4.9 °C -2 °C 1011.7 hPa Calm     61 % 0 mm
06:19 4.9 °C -1.8 °C 1011.7 hPa Calm   1.9 km/h 62 % 0 mm
06:24 4.9 °C -1.7 °C 1011.7 hPa Calm     62 % 0 mm
06:29 4.9 °C -1.7 °C 1011.7 hPa Calm     62 % 0 mm
06:34 4.9 °C -1.7 °C 1011.7 hPa Calm     62 % 0 mm
06:39 4.9 °C -1.7 °C 1012.1 hPa WNW 4 km/h 6.4 km/h 62 % 0 mm
06:44 4.9 °C -1.7 °C 1012.1 hPa WNW 3.1 km/h 3.7 km/h 62 % 0 mm
06:49 4.9 °C -1.7 °C 1012.1 hPa West 2.3 km/h 3.7 km/h 62 % 0 mm
06:54 4.9 °C -1.7 °C 1012.1 hPa West 0.5 km/h 3.7 km/h 62 % 0 mm
06:59 5 °C -1.7 °C 1012.1 hPa West 0.6 km/h 3.7 km/h 62 % 0 mm
07:04 5 °C -1.7 °C 1012.1 hPa West 2.3 km/h 5.6 km/h 62 % 0 mm
07:09 5 °C -1.7 °C 1011.7 hPa Calm   1.9 km/h 62 % 0 mm
07:15 5.1 °C -1.6 °C 1011.7 hPa Calm   1.9 km/h 62 % 0 mm
07:20 5.1 °C -1.4 °C 1011.7 hPa West 0.5 km/h 1.9 km/h 63 % 0 mm
07:22 5.1 °C -1.4 °C 1011.7 hPa West 0.3 km/h 1.9 km/h 63 % 0 mm
07:27 5.1 °C -1.4 °C 1011.7 hPa West 0.6 km/h 1.9 km/h 63 % 0 mm
07:32 5.1 °C -1.4 °C 1011.7 hPa Calm   3.7 km/h 63 % 0 mm
07:37 5.1 °C -1.4 °C 1011.7 hPa Calm   1.9 km/h 63 % 0 mm
07:42 5.2 °C -1.3 °C 1011.7 hPa Calm   1.6 km/h 63 % 0 mm
07:47 5.2 °C -1.1 °C 1011.7 hPa Calm     64 % 0 mm
07:52 5.2 °C -1.1 °C 1012.1 hPa Calm   1.9 km/h 64 % 0 mm
07:57 5.2 °C -1.3 °C 1012.1 hPa Calm     63 % 0 mm
08:02 5.3 °C -1.2 °C 1012.1 hPa WSW 0.8 km/h 3.2 km/h 63 % 0 mm
08:07 5.3 °C -1.4 °C 1012.1 hPa WSW 2.4 km/h 5.6 km/h 62 % 0 mm
08:17 5.4 °C -2.2 °C 1012.1 hPa WSW 1 km/h 3.7 km/h 58 % 0 mm
08:27 5.6 °C -2 °C 1012.1 hPa WSW 2.7 km/h 5.6 km/h 58 % 0 mm
08:32 5.7 °C -1.9 °C 1012.1 hPa Calm     58 % 0 mm
08:37 5.8 °C -1.8 °C 1012.4 hPa WSW 0.2 km/h   58 % 0 mm
08:42 5.8 °C -1.8 °C 1012.1 hPa WSW 0.2 km/h 1.9 km/h 58 % 0 mm
08:47 5.9 °C -1.9 °C 1012.4 hPa WSW 0.2 km/h 5.6 km/h 57 % 0 mm
08:53 6 °C -2.4 °C 1012.4 hPa WSW 0.6 km/h 3.7 km/h 55 % 0 mm
08:58 6.2 °C -2.4 °C 1012.1 hPa WSW 0.2 km/h   54 % 0 mm
09:03 6.2 °C -2.2 °C 1012.4 hPa Calm   3.2 km/h 55 % 0 mm
09:08 6.3 °C -2.1 °C 1012.4 hPa Calm   6.4 km/h 55 % 0 mm
09:13 6.4 °C -1.5 °C 1012.4 hPa WSW 2.3 km/h 6.4 km/h 57 % 0 mm
09:23 6.5 °C -1.7 °C 1012.4 hPa WSW 1.6 km/h 9.7 km/h 56 % 0 mm
09:28 6.5 °C -1.7 °C 1012.4 hPa WSW 3.2 km/h 9.7 km/h 56 % 0 mm
09:33 6.6 °C -1.4 °C 1012.4 hPa WSW 4.8 km/h 9.7 km/h 57 % 0 mm
09:38 6.6 °C -1.3 °C 1012.4 hPa WSW 4.8 km/h 11.3 km/h 57 % 0 mm
09:43 6.6 °C -1.3 °C 1012.4 hPa WSW 1.6 km/h 8 km/h 57 % 0 mm
09:48 6.7 °C -1.2 °C 1012.4 hPa WSW 3.2 km/h 9.7 km/h 57 % 0 mm
09:53 6.8 °C -1.2 °C 1012.4 hPa WSW 3.2 km/h 8 km/h 57 % 0 mm
09:58 6.9 °C -1.2 °C 1012.1 hPa WSW 3.7 km/h 6.4 km/h 56 % 0 mm
10:03 7.1 °C -1.4 °C 1012.1 hPa WSW 4.8 km/h 9.7 km/h 55 % 0 mm
10:08 7.2 °C -1.8 °C 1012.1 hPa WSW 3.2 km/h 9.7 km/h 53 % 0 mm
10:13 7.2 °C -1.7 °C 1012.1 hPa WSW 3.5 km/h 7.4 km/h 53 % 0 mm
10:18 7.3 °C -1.7 °C 1012.1 hPa WSW 4.8 km/h 9.7 km/h 53 % 0 mm
10:23 7.4 °C -1.6 °C 1012.1 hPa WSW 4.8 km/h 9.7 km/h 53 % 0 mm
10:28 7.7 °C -1.3 °C 1012.1 hPa WSW 3.2 km/h 6.4 km/h 53 % 0 mm
10:33 7.8 °C -1.7 °C 1012.1 hPa WNW 4 km/h 7.4 km/h 51 % 0 mm
10:34 7.9 °C -1.6 °C 1012.1 hPa WSW 5.8 km/h 6.4 km/h 51 % 0 mm
10:39 8.1 °C -1.8 °C 1012.1 hPa WNW 1.9 km/h 5.6 km/h 50 % 0 mm
10:44 8.1 °C -2 °C 1012.4 hPa WNW 5.1 km/h 8 km/h 49 % 0 mm
10:49 8.2 °C -2.2 °C 1012.1 hPa West 3.2 km/h 5.6 km/h 48 % 0 mm
10:54 8.3 °C -2.7 °C 1012.1 hPa WNW 6.3 km/h 8 km/h 46 % 0 mm
11:00 8.3 °C -2.4 °C 1012.1 hPa West 5.5 km/h 7.4 km/h 47 % 0 mm
11:05 8.3 °C -2.1 °C 1012.1 hPa WNW 3.7 km/h 5.6 km/h 48 % 0 mm
11:10 8.4 °C -2 °C 1012.1 hPa WNW 1 km/h 5.6 km/h 48 % 0 mm
11:15 8.5 °C -1.3 °C 1012.1 hPa NNW 5.6 km/h 7.4 km/h 50 % 0 mm
11:20 8.6 °C -0.7 °C 1012.1 hPa WNW 5.5 km/h 11.1 km/h 52 % 0 mm
11:25 8.7 °C -0.9 °C 1012.1 hPa WNW 1.1 km/h 7.4 km/h 51 % 0 mm
11:35 8.8 °C -0.8 °C 1012.1 hPa NNW 3.7 km/h 5.6 km/h 51 % 0 mm
11:40 9 °C -0.9 °C 1012.1 hPa NW 3.2 km/h 5.6 km/h 50 % 0 mm
11:45 9.1 °C -1.1 °C 1012.1 hPa NW 6.8 km/h 9.3 km/h 49 % 0 mm
11:50 9.1 °C -1.4 °C 1012.1 hPa NW 3.7 km/h 9.3 km/h 48 % 0 mm
11:55 9.1 °C -1.4 °C 1012.1 hPa NW 4.7 km/h 8 km/h 48 % 0 mm
12:00 8.9 °C -1.2 °C 1012.1 hPa NW 3.4 km/h 5.6 km/h 49 % 0 mm
12:05 9 °C -1.2 °C 1012.1 hPa NW 2.3 km/h 3.7 km/h 49 % 0 mm
12:10 9.2 °C -0.7 °C 1012.1 hPa West 2.3 km/h 6.4 km/h 50 % 0 mm
12:15 9.3 °C -2 °C 1012.1 hPa SW 4.3 km/h 9.3 km/h 45 % 0 mm
12:20 9.4 °C -1.9 °C 1012.1 hPa WNW 2.7 km/h 5.6 km/h 45 % 0 mm
12:25 9.7 °C -1.4 °C 1011.7 hPa WNW 4.3 km/h 7.4 km/h 46 % 0 mm
12:30 9.9 °C -2.1 °C 1011.7 hPa SSW 1.9 km/h 5.6 km/h 43 % 0 mm
12:35 10.1 °C -1.3 °C 1011.7 hPa WNW 3.1 km/h 3.7 km/h 45 % 0 mm
12:37 10.2 °C -1.9 °C 1011.7 hPa NW 4.7 km/h 9.3 km/h 43 % 0 mm
12:42 10.5 °C -0.1 °C 1011.7 hPa NW 0.2 km/h 1.9 km/h 48 % 0 mm
12:47 10.7 °C -1.1 °C 1011.4 hPa NNW 3.2 km/h 7.4 km/h 44 % 0 mm
12:52 10.8 °C -0.9 °C 1011.4 hPa North 4.3 km/h 9.3 km/h 44 % 0 mm
12:57 11.1 °C -0.7 °C 1011.4 hPa NNW 3.2 km/h 6.4 km/h 44 % 0 mm
13:02 11.3 °C -0.6 °C 1011.4 hPa NNW 3.1 km/h 7.4 km/h 44 % 0 mm
13:07 11.6 °C 0.9 °C 1011.4 hPa NNW 3.9 km/h 6.4 km/h 48 % 0 mm
13:12 11.9 °C 0.3 °C 1011.4 hPa NW 4 km/h 5.6 km/h 45 % 0 mm
13:17 12.2 °C 0.9 °C 1011.1 hPa North 3.2 km/h 5.6 km/h 46 % 0 mm
13:22 12.4 °C 0.8 °C 1011.1 hPa WNW 6 km/h 7.4 km/h 45 % 0 mm
13:27 12.5 °C 0.6 °C 1011.1 hPa North 6.3 km/h 8 km/h 44 % 0 mm
13:32 12.7 °C 1 °C 1011.1 hPa NNW 5.8 km/h 8 km/h 45 % 0 mm
13:37 12.9 °C 0.6 °C 1011.1 hPa NNW 4.2 km/h 5.6 km/h 43 % 0 mm
13:42 13.1 °C 1.7 °C 1011.1 hPa North 5 km/h 11.1 km/h 46 % 0 mm
13:47 13.2 °C 1.2 °C 1010.7 hPa NNW 4.7 km/h 6.4 km/h 44 % 0 mm
13:52 13.2 °C 1.2 °C 1010.7 hPa NNW 3.7 km/h 9.3 km/h 44 % 0 mm
13:58 13.1 °C 0.7 °C 1010.4 hPa WNW 3.5 km/h 11.1 km/h 43 % 0 mm
14:03 13.1 °C 0.4 °C 1010.4 hPa WNW 8 km/h 11.3 km/h 42 % 0 mm
14:08 13.2 °C 0.9 °C 1010.4 hPa NW 4.8 km/h 12.9 km/h 43 % 0 mm
14:13 13.2 °C 0.6 °C 1010.4 hPa WNW 4.8 km/h 12.9 km/h 42 % 0 mm
14:18 13.3 °C 0.3 °C 1010.4 hPa WNW 8 km/h 12.9 km/h 41 % 0 mm
14:23 13.2 °C -0.1 °C 1010.4 hPa WNW 8 km/h 16.1 km/h 40 % 0 mm
14:28 13.1 °C -0.6 °C 1010.4 hPa WNW 4.8 km/h 12.9 km/h 39 % 0 mm
14:33 13.1 °C -0.3 °C 1010.4 hPa WNW 7.9 km/h 9.7 km/h 40 % 0 mm
14:38 13.2 °C -0.2 °C 1010 hPa WNW 7.7 km/h 14.8 km/h 40 % 0 mm
14:43 13.3 °C -0.1 °C 1010 hPa West 4.8 km/h 16.1 km/h 40 % 0 mm
14:48 13.2 °C -0.5 °C 1010 hPa West 8 km/h 19.3 km/h 39 % 0 mm
14:53 13.2 °C -0.4 °C 1010 hPa West 4.8 km/h 12.9 km/h 39 % 0 mm
14:58 13.2 °C -0.1 °C 1010 hPa West 6 km/h 11.1 km/h 40 % 0 mm
15:03 13.2 °C -0.4 °C 1010 hPa WNW 2.9 km/h 11.1 km/h 39 % 0 mm
15:08 13.3 °C 0.3 °C 1009.7 hPa WSW 8.9 km/h 11.3 km/h 41 % 0 mm
15:13 13.3 °C 0.7 °C 1009.7 hPa SW 5 km/h 13 km/h 42 % 0 mm
15:18 13.4 °C 0.1 °C 1009.7 hPa West 9.3 km/h 16.7 km/h 40 % 0 mm
15:23 13.4 °C 0.1 °C 1009.7 hPa SW 8.4 km/h 13 km/h 40 % 0 mm
15:28 13.4 °C 0.1 °C 1009.7 hPa SW 6.8 km/h 13 km/h 40 % 0 mm
15:33 13.4 °C 0.1 °C 1009.4 hPa WSW 10 km/h 16.7 km/h 40 % 0 mm
15:40 13.3 °C 0 °C 1009.4 hPa WSW 10.6 km/h 16.7 km/h 40 % 0 mm
15:50 13.4 °C 0.4 °C 1009.4 hPa West 8.2 km/h 9.3 km/h 41 % 0 mm
15:51 13.4 °C 0.4 °C 1009.4 hPa WNW 8.5 km/h 9.3 km/h 41 % 0 mm
15:56 13.6 °C 0.2 °C 1009.4 hPa WNW 3.5 km/h 7.4 km/h 40 % 0 mm
16:01 13.6 °C 0.2 °C 1009.4 hPa West 5.1 km/h 14.8 km/h 40 % 0 mm
16:06 13.6 °C 0.6 °C 1009 hPa WSW 7.1 km/h 13 km/h 41 % 0 mm
16:11 13.7 °C 0.7 °C 1009 hPa WSW 6.9 km/h 11.1 km/h 41 % 0 mm
16:16 13.6 °C 0.2 °C 1009 hPa West 6 km/h 16.1 km/h 40 % 0 mm
16:21 13.7 °C 0.3 °C 1009 hPa SSW 3.5 km/h 9.3 km/h 40 % 0 mm
16:27 13.7 °C 0.3 °C 1009 hPa SW 4 km/h 16.7 km/h 40 % 0 mm
16:32 13.8 °C 0.8 °C 1009 hPa West 6.4 km/h 11.3 km/h 41 % 0 mm
16:37 13.9 °C 0.5 °C 1008.7 hPa WSW 6.4 km/h 9.7 km/h 40 % 0 mm
16:42 14.1 °C 0.7 °C 1008.7 hPa WNW 9 km/h 12.9 km/h 40 % 0 mm
16:47 14.2 °C 0.7 °C 1008.4 hPa West 6.9 km/h 11.1 km/h 40 % 0 mm
16:52 14.2 °C 0.7 °C 1008.4 hPa WSW 5.5 km/h 11.3 km/h 40 % 0 mm
16:57 14.1 °C 0.7 °C 1008.4 hPa WSW 8.2 km/h 11.3 km/h 40 % 0 mm
17:02 13.8 °C 0.4 °C 1008.4 hPa WSW 8 km/h 11.1 km/h 40 % 0 mm
17:07 13.7 °C 0.7 °C 1008.4 hPa SW 2.1 km/h 7.4 km/h 41 % 0 mm
17:12 13.7 °C 0.7 °C 1008.4 hPa West 8.7 km/h 13 km/h 41 % 0 mm
17:17 13.6 °C 0.9 °C 1008.4 hPa WSW 8.5 km/h 11.1 km/h 42 % 0 mm
17:22 13.5 °C 0.8 °C 1008.4 hPa West 7.6 km/h 9.3 km/h 42 % 0 mm
17:27 13.4 °C 0.8 °C 1008 hPa WSW 6.9 km/h 9.3 km/h 42 % 0 mm
17:32 13.4 °C 0.8 °C 1008.4 hPa WSW 7.7 km/h 9.7 km/h 42 % 0 mm
17:37 13.4 °C 1.1 °C 1008.4 hPa West 3.4 km/h 5.6 km/h 43 % 0 mm
17:47 13.4 °C 1.1 °C 1008.4 hPa WSW 6.9 km/h 8 km/h 43 % 0 mm
17:52 13.3 °C 1.3 °C 1008.4 hPa SSW 3.2 km/h 5.6 km/h 44 % 0 mm
17:57 13.3 °C 1.3 °C 1008.4 hPa SSW 3.1 km/h 4.8 km/h 44 % 0 mm
18:02 13.3 °C 1.3 °C 1008.4 hPa West 3.1 km/h 5.6 km/h 44 % 0 mm
18:07 13.3 °C 1.3 °C 1008.4 hPa WSW 2.7 km/h 5.6 km/h 44 % 0 mm
18:12 13.3 °C 1.3 °C 1008.4 hPa WSW 1.3 km/h 3.2 km/h 44 % 0 mm
18:17 13.3 °C 1.6 °C 1008.4 hPa WSW 2.4 km/h 5.6 km/h 45 % 0 mm
18:22 13.3 °C 1.6 °C 1008.4 hPa WSW 0.6 km/h 3.7 km/h 45 % 0 mm
18:27 13.3 °C 1.3 °C 1008.4 hPa SW 2.9 km/h 5.6 km/h 44 % 0 mm
18:32 13.2 °C 1.6 °C 1008.4 hPa WSW 1 km/h 3.7 km/h 45 % 0 mm
18:37 13.2 °C 1.5 °C 1008.4 hPa SW 0.8 km/h 1.9 km/h 45 % 0 mm
18:42 13.1 °C 1.7 °C 1008.7 hPa SSW 7.4 km/h 9.3 km/h 46 % 0 mm
18:47 12.8 °C 1.8 °C 1008.4 hPa South 2.7 km/h 3.7 km/h 47 % 0 mm
18:52 12.7 °C 2 °C 1008.7 hPa WSW 5 km/h 11.3 km/h 48 % 0 mm
18:57 12.6 °C 2.1 °C 1008.7 hPa SSW 5.3 km/h 9.7 km/h 49 % 0 mm
19:02 12.4 °C 1.9 °C 1008.7 hPa SW 1.8 km/h 13 km/h 49 % 0 mm
19:07 12.3 °C 2.2 °C 1008.7 hPa SSW 5 km/h 7.4 km/h 50 % 0 mm
19:12 12.1 °C 2 °C 1008.7 hPa SW 0.6 km/h 9.3 km/h 50 % 0 mm
19:17 12 °C 1.9 °C 1008.7 hPa SW 4.5 km/h 5.6 km/h 50 % 0 mm
19:23 11.9 °C 2.1 °C 1009 hPa SSW 4.3 km/h 7.4 km/h 51 % 0 mm
19:27 11.8 °C 1.9 °C 1008.7 hPa SSW 1.9 km/h 5.6 km/h 51 % 0 mm
19:32 11.6 °C 2.1 °C 1008.7 hPa SSW 2.6 km/h 6.4 km/h 52 % 0 mm
19:38 11.5 °C 2 °C 1008.7 hPa SW 1.6 km/h 4.8 km/h 52 % 0 mm
19:43 11.3 °C 2.1 °C 1009 hPa SW 4.8 km/h 14.5 km/h 53 % 0 mm
19:48 11.1 °C 2.2 °C 1009 hPa SW 6.4 km/h 6.4 km/h 54 % 0 mm
19:53 10.9 °C 2.2 °C 1009 hPa SW 4.8 km/h 11.3 km/h 55 % 0 mm
19:58 10.7 °C 2.3 °C 1009 hPa SW 3.7 km/h 9.3 km/h 56 % 0 mm
20:03 10.7 °C 2.2 °C 1009.4 hPa WSW 2.4 km/h 9.3 km/h 56 % 0 mm
20:08 10.6 °C 2.1 °C 1009.4 hPa SW 3.5 km/h 9.7 km/h 56 % 0 mm
20:13 10.4 °C 2.3 °C 1009.4 hPa SW 3.7 km/h 6.4 km/h 57 % 0 mm
20:18 10.3 °C 2.4 °C 1009.7 hPa SW 1.8 km/h 5.6 km/h 58 % 0 mm
20:23 10.2 °C 2.3 °C 1009.7 hPa WSW 3.2 km/h 5.6 km/h 58 % 0 mm
20:28 10.1 °C 2.2 °C 1009.7 hPa SW 3.4 km/h 8 km/h 58 % 0 mm
20:33 9.9 °C 2.1 °C 1009.7 hPa SW 2.6 km/h 4.8 km/h 58 % 0 mm
20:38 9.9 °C 2.2 °C 1009.7 hPa SW 4.2 km/h 5.6 km/h 59 % 0 mm
20:43 9.8 °C 2.1 °C 1010 hPa SSW 2.4 km/h 7.4 km/h 59 % 0 mm
20:48 9.7 °C 2.1 °C 1009.7 hPa SSW 0.5 km/h 5.6 km/h 59 % 0 mm
20:53 9.6 °C 2 °C 1010 hPa SSW 1.9 km/h 3.7 km/h 59 % 0 mm
20:58 9.5 °C 2.1 °C 1009.7 hPa SSW 1.3 km/h 3.7 km/h 60 % 0 mm
21:03 9.4 °C 2.1 °C 1009.7 hPa Calm     60 % 0 mm
21:08 9.3 °C 1.9 °C 1009.7 hPa SSW 0.6 km/h 3.7 km/h 60 % 0 mm
21:13 9.2 °C 1.8 °C 1010 hPa SSW 0.6 km/h 3.2 km/h 60 % 0 mm
21:19 9.1 °C 2 °C 1010 hPa SSW 2.1 km/h 5.6 km/h 61 % 0 mm
21:24 9 °C 1.9 °C 1009.7 hPa SSW 2.1 km/h 5.6 km/h 61 % 0 mm
21:29 8.9 °C 2.1 °C 1010 hPa SSW 2.4 km/h 4.8 km/h 62 % 0 mm
21:34 8.8 °C 1.9 °C 1010 hPa SSW 1.9 km/h 3.7 km/h 62 % 0 mm
21:39 8.7 °C 1.8 °C 1010 hPa SSW 0.8 km/h 1.9 km/h 62 % 0 mm
21:44 8.6 °C 1.9 °C 1010 hPa SSW 1.8 km/h 3.7 km/h 63 % 0 mm
21:49 8.5 °C 1.8 °C 1010 hPa SSW 2.6 km/h 3.7 km/h 63 % 0 mm
21:54 8.3 °C 1.7 °C 1010 hPa SSW 1.6 km/h 3.7 km/h 63 % 0 mm
21:59 8.2 °C 1.8 °C 1010 hPa SSW 2.3 km/h 5.6 km/h 64 % 0 mm
22:04 8.1 °C 1.7 °C 1010 hPa SSW 2.9 km/h 4.8 km/h 64 % 0 mm
22:09 8 °C 1.6 °C 1010 hPa Calm   3.7 km/h 64 % 0 mm
22:14 7.9 °C 1.8 °C 1010 hPa SSW 3.7 km/h 5.6 km/h 65 % 0 mm
22:19 7.9 °C 1.7 °C 1010 hPa SSW 2.6 km/h 5.6 km/h 65 % 0 mm
22:24 7.8 °C 1.7 °C 1010 hPa SSW 2.4 km/h 3.7 km/h 65 % 0 mm
22:29 7.8 °C 1.7 °C 1010 hPa SSW 0.6 km/h 3.7 km/h 65 % 0 mm
22:34 7.9 °C 0.8 °C 1010 hPa WNW 3.4 km/h 5.6 km/h 61 % 0 mm
22:39 8 °C 0.9 °C 1010 hPa WNW 0.5 km/h 3.2 km/h 61 % 0 mm
22:44 8 °C 0.7 °C 1010 hPa WNW 0.6 km/h 1.9 km/h 60 % 0 mm
22:49 8.1 °C 0.8 °C 1010 hPa WNW 0.3 km/h 5.6 km/h 60 % 0 mm
22:55 8.2 °C 0.6 °C 1010 hPa WNW 1.9 km/h 3.2 km/h 59 % 0 mm
23:00 8.2 °C 0.7 °C 1010 hPa WNW 0.2 km/h 1.9 km/h 59 % 0 mm
23:05 8.2 °C 0.4 °C 1010 hPa WNW 0.2 km/h 1.9 km/h 58 % 0 mm
23:10 8.2 °C 0.4 °C 1010 hPa Calm     58 % 0 mm
23:15 8.2 °C 0.4 °C 1010 hPa Calm     58 % 0 mm
23:20 8.2 °C 0.4 °C 1010 hPa WNW 0.6 km/h 1.9 km/h 58 % 0 mm
23:25 8.1 °C 0.3 °C 1010 hPa Calm     58 % 0 mm
23:30 8.1 °C 0.5 °C 1010 hPa Calm     59 % 0 mm
23:35 8 °C 0.4 °C 1010 hPa Calm     59 % 0 mm
23:40 7.9 °C 0.8 °C 1010 hPa Calm     61 % 0 mm
23:45 7.8 °C 0.9 °C 1010 hPa Calm     62 % 0 mm
23:50 7.7 °C 0.8 °C 1010 hPa Calm     62 % 0 mm
23:56 7.5 °C 0.4 °C 1010 hPa Calm     61 % 0 mm
Crab Meadow Weather
Compliments of Weather Underground - 3 mb

Script developed by  Jim McMurry - jmcmurry@mwt.net Adapted for the template by  Wim van der Kuil - Leuven-Template.eu

Extremes: The heaviest hailstones on record, weighing up to 2.25 pounds were reported to have killed 92 people in the Gopalganj district of Bangladesh on April 14, 1986.